{"data":{"norad_id":63042,"epoch":"2026-05-25T01:32:34.232640Z","epoch_age_seconds":70224,"freshness":"FRESH","line1":"1 63042U 25034P   26145.06428510  .00041958  00000+0  12794-2 0  9994","line2":"2 63042  53.1602 263.1168 0000910 115.0536 245.0561 15.33564172 70784","mean_motion":15.33564172,"eccentricity":9.1e-5,"inclination_deg":53.1602,"raan_deg":263.1168,"arg_perigee_deg":115.0536,"mean_anomaly_deg":245.0561,"bstar":0.0012794,"rev_number":7078,"period_min":93.898907283549,"perigee_km":464.5658827803,"apogee_km":465.81136804413,"semimajor_km":6843.3256254122,"source":"CELESTRAK","updated_at":"2026-05-25T13:38:19.868058Z"}}